Wind_Speed
17 18 18 17 18 18 18 17 17 17 17 17 17 17 16 15 14 14 15 16 17 19 21 24 27 30 33 36 38 40 41 42 45 46 47 48 49 50 50 48 46 45 43 41 39 38 36 33 31 30 29 28 26 24 23 22 20 17 14 12 9 7 5 4 4 3 3 3 1 2 5 5 8 12 15 17 18 20 22 23 24 26 30 35 38 38 37 36
19 20 20 20 20 20 20 20 20 19 19 19 19 19 19 18 17 16 16 16 18 19 20 22 25 28 31 35 37 40 41 42 44 46 47 48 49 51 51 50 49 47 45 44 42 39 37 35 32 31 30 30 28 25 24 22 20 19 16 13 11 7 7 7 5 4 3 2 3 0 3 3 5 9 12 14 15 17 19 21 22 24 26 30 35 38 38 37
22 22 22 22 22 22 22 22 22 22 21 21 21 21 21 21 20 19 18 18 18 19 21 22 24 26 29 33 36 39 41 43 44 46 47 48 49 52 52 52 51 49 48 46 44 41 40 37 34 33 32 32 29 27 26 22 20 22 17 13 13 11 9 9 6 3 3 3 4 4 1 1 3 6 9 11 13 15 17 19 21 22 23 25 31 35 37 37
23 23 23 23 23 23 24 24 24 24 24 24 24 24 23 23 23 22 21 20 20 20 22 23 24 26 28 31 34 38 40 42 45 46 47 48 49 52 53 53 53 52 51 48 45 43 42 39 37 35 34 34 31 29 29 25 22 21 18 15 16 15 12 9 5 3 4 4 5 6 3 2 2 5 7 9 12 13 15 17 19 20 21 22 25 30 34 36
25 25 25 25 25 25 25 25 25 25 25 25 26 26 26 25 24 24 23 23 22 22 22 23 25 26 28 29 32 36 39 42 46 46 47 49 50 52 54 55 55 54 53 50 47 45 43 41 39 37 36 35 33 31 30 30 26 20 23 23 21 18 13 8 5 4 5 4 6 7 5 2 2 5 7 7 10 12 12 15 17 18 19 20 22 26 31 34
26 26 25 25 25 25 26 26 26 26 26 27 27 27 27 27 26 26 25 25 25 25 24 24 25 27 29 30 32 34 36 41 46 45 47 49 50 52 54 55 56 56 54 52 49 48 46 43 41 39 37 36 36 34 32 33 29 25 27 27 24 21 12 7 9 8 6 6 7 7 5 1 1 3 5 5 8 10 10 13 15 16 17 18 20 24 28 31
27 27 27 26 26 26 26 27 27 27 28 28 29 29 29 29 29 28 28 28 28 28 28 27 27 27 29 31 32 34 35 39 44 44 46 49 50 52 54 55 57 57 56 53 52 50 48 46 43 41 40 38 38 36 33 33 31 29 30 27 25 22 12 8 12 13 12 9 8 8 7 3 2 0 2 3 6 8 8 10 13 14 15 17 18 21 25 28
28 28 28 28 28 28 28 28 28 29 29 30 30 31 32 32 32 31 31 31 31 31 31 31 31 30 31 32 33 36 35 37 45 46 47 50 51 52 55 55 57 58 57 55 54 53 51 48 45 44 42 40 41 37 34 34 31 30 31 28 26 21 14 11 12 16 15 11 10 10 8 6 4 2 1 1 4 6 6 8 10 12 14 15 16 19 23 26
30 30 30 30 30 29 30 30 30 30 31 31 32 33 34 34 34 34 34 33 33 33 34 34 34 34 34 34 34 36 34 38 48 47 45 51 52 53 55 56 58 58 59 58 56 55 53 50 48 47 45 42 43 40 37 36 33 32 32 30 28 22 17 14 12 15 16 13 12 12 10 8 6 4 3 2 2 3 3 5 8 10 12 14 15 17 20 24
31 31 31 32 31 31 32 32 32 32 33 33 33 34 35 36 37 37 37 36 36 36 37 37 37 37 37 37 37 35 35 40 50 49 45 50 52 53 56 57 58 59 60 60 58 57 55 53 51 49 47 45 45 44 42 40 37 35 34 32 31 25 18 16 14 14 15 15 14 13 12 10 7 4 3 3 0 1 1 2 4 8 10 12 14 15 18 22
32 32 33 33 33 33 33 34 34 34 35 35 36 37 37 38 39 39 39 39 39 39 40 40 41 42 41 41 39 37 39 43 52 53 47 50 53 54 56 58 59 60 61 61 60 59 56 55 54 51 49 48 47 45 44 43 40 38 36 33 32 27 21 18 16 14 12 13 14 12 12 11 8 6 6 5 3 4 4 2 2 5 8 10 12 14 16 19
33 33 34 34 35 35 35 35 36 36 37 38 38 39 39 40 40 41 41 41 42 42 43 44 44 45 45 46 43 41 45 47 53 55 49 50 53 54 57 58 59 61 61 62 62 61 59 58 56 54 52 50 50 47 45 46 43 40 37 34 33 29 25 23 19 16 11 9 13 13 13 12 9 9 9 8 7 6 7 4 0 2 5 8 10 12 14 16
34 35 35 35 36 36 36 36 37 38 38 39 40 40 41 41 42 42 42 43 44 45 47 48 48 49 48 49 48 48 50 50 54 56 50 51 53 53 56 59 60 61 62 63 63 62 62 61 59 56 55 54 54 51 49 49 46 42 39 36 35 33 30 28 22 20 16 11 14 18 16 13 11 9 9 12 12 9 8 7 4 1 3 6 8 10 12 14
36 36 36 36 37 37 37 37 38 39 39 40 41 41 41 42 43 44 45 46 48 50 51 52 51 51 51 51 52 53 53 53 56 57 52 52 54 54 56 59 60 61 62 63 63 64 64 63 61 60 58 57 55 54 52 50 48 44 42 40 38 35 32 31 27 25 24 19 19 22 19 15 13 9 9 15 15 12 9 9 8 3 2 4 6 8 9 11
38 38 38 38 38 38 38 38 38 39 39 40 40 41 42 44 45 47 49 50 51 52 52 52 52 53 52 53 55 55 55 56 58 58 55 54 56 56 56 58 60 62 63 63 64 65 66 66 65 62 61 59 56 55 54 51 49 46 44 44 43 39 34 32 31 30 28 25 23 24 22 19 15 10 12 17 14 12 7 9 10 5 1 3 4 6 7 8
39 39 39 39 39 38 38 38 38 38 38 39 40 41 44 46 48 50 51 51 51 51 51 52 52 53 54 55 56 56 57 59 60 61 58 57 57 57 57 59 60 63 63 64 65 65 68 69 67 64 62 61 59 57 56 52 50 49 47 46 45 42 37 34 33 32 32 29 25 23 22 20 16 12 15 17 13 12 6 7 11 7 2 2 3 4 5 6
40 40 40 39 39 38 37 36 36 36 37 38 40 43 45 48 49 50 51 51 51 50 50 51 53 55 56 57 58 58 59 60 63 64 61 59 59 59 59 60 61 63 64 65 66 67 69 70 68 66 63 62 61 59 58 54 51 51 50 48 45 41 38 35 33 31 31 29 26 24 23 21 18 16 17 15 11 10 7 7 10 9 5 4 4 4 3 3
41 41 40 39 38 36 35 34 34 35 37 40 42 45 47 49 50 50 50 50 50 50 50 51 53 55 56 59 60 61 62 63 66 67 64 61 61 61 61 62 62 63 64 66 67 68 70 70 68 68 65 63 63 61 61 59 54 52 51 49 47 43 38 34 33 32 28 25 24 25 25 23 22 20 19 16 11 8 9 10 11 11 9 6 5 5 4 2
42 40 39 37 36 34 33 33 33 36 39 42 45 47 49 51 51 51 51 50 49 49 49 50 53 55 57 61 63 64 66 67 69 69 67 64 64 64 64 63 63 64 65 67 68 69 70 70 69 69 69 67 66 65 63 62 59 55 54 51 49 45 39 35 34 33 31 27 27 28 27 26 25 23 20 18 14 10 10 13 14 15 14 11 9 7 5 3
41 39 37 35 33 32 31 32 34 37 41 44 47 50 52 53 53 53 51 50 48 46 46 47 50 54 58 62 66 69 70 70 70 70 69 67 66 67 65 65 65 65 65 67 69 70 70 70 70 71 72 71 69 67 66 65 62 58 55 54 52 47 41 38 35 33 35 31 28 30 29 28 27 25 22 20 17 13 10 12 13 14 15 15 13 9 7 5
40 37 35 32 30 30 31 33 36 40 43 46 50 52 54 55 55 53 51 49 46 43 43 44 47 52 58 63 68 71 71 71 72 72 71 70 70 69 68 67 67 67 67 68 70 70 70 70 71 72 73 73 71 69 68 67 65 62 58 56 55 50 43 41 37 34 38 36 31 31 31 29 28 27 24 21 20 18 15 13 12 13 15 16 14 11 8 7
38 35 32 29 28 29 31 34 38 42 46 48 51 54 56 56 55 53 51 47 42 40 38 40 44 49 56 63 68 70 72 74 75 75 74 74 73 71 70 69 68 69 69 69 69 70 70 71 72 73 75 75 73 71 70 69 68 65 62 59 58 55 48 44 41 35 38 40 35 32 31 29 27 26 25 23 22 23 23 20 16 15 16 17 15 12 10 9
36 32 29 27 27 29 32 37 41 44 47 51 53 55 56 56 55 53 49 44 38 35 34 36 39 45 53 61 67 71 74 76 77 78 77 76 75 73 72 71 70 70 70 69 69 69 71 72 74 74 76 77 75 74 73 72 71 67 65 63 61 59 53 48 46 40 38 40 37 34 32 29 26 24 25 25 24 24 24 24 21 18 17 17 16 14 12 11
34 29 26 26 27 30 34 39 43 46 49 52 55 56 57 56 55 52 47 40 33 31 30 31 35 40 48 58 66 72 76 78 79 80 80 78 77 75 74 73 72 71 71 70 69 69 71 73 75 76 77 77 77 77 75 73 72 69 68 66 64 63 57 50 50 45 39 38 37 36 36 32 27 25 26 27 27 25 23 24 24 21 19 18 17 15 14 12
31 27 25 26 28 31 36 40 44 48 51 54 56 57 57 57 55 50 42 35 29 27 26 27 30 35 43 52 62 70 76 80 81 82 81 80 78 77 76 74 73 73 72 71 70 70 73 74 75 77 77 78 79 78 77 74 73 72 71 68 66 65 59 52 50 50 44 39 37 38 39 37 34 30 28 29 29 28 26 26 24 22 20 19 18 16 14 13
28 25 25 26 29 32 37 42 45 49 52 55 57 58 58 57 54 47 37 30 25 23 23 22 25 31 37 46 56 67 75 79 81 83 82 80 79 79 77 75 76 75 73 73 72 72 73 75 77 78 78 79 80 79 78 76 74 74 74 71 68 67 63 54 50 51 49 45 41 40 40 40 38 35 32 31 31 30 28 26 24 22 20 21 21 17 15 15
26 24 24 27 29 34 39 43 47 50 53 56 58 59 58 57 53 45 34 26 22 21 19 18 21 26 32 40 49 60 71 77 81 83 83 82 81 80 79 78 78 77 76 75 74 72 73 76 77 78 79 79 79 79 79 78 77 77 76 73 71 70 66 58 51 49 48 47 45 43 41 40 38 36 34 33 31 30 29 27 25 23 22 22 24 20 17 16
26 24 25 27 30 35 40 43 47 50 53 57 59 59 58 56 52 43 32 24 20 19 17 16 17 21 28 35 43 54 66 76 81 83 83 83 83 83 82 82 81 79 78 75 73 72 73 76 78 78 80 79 78 79 81 81 81 80 77 75 74 72 69 62 53 49 47 48 48 46 44 43 40 37 34 33 31 31 31 30 28 25 23 24 26 22 18 16
25 24 25 28 31 35 40 43 46 49 53 56 58 59 58 56 51 42 31 23 20 18 16 14 14 18 24 31 39 48 60 71 79 83 84 84 85 84 83 82 81 79 77 75 73 74 77 79 79 79 81 80 79 80 83 84 83 81 79 78 75 72 71 65 56 52 50 49 49 48 46 46 45 39 33 31 31 32 32 31 30 27 24 25 26 22 17 15
24 24 26 28 31 36 40 43 46 49 52 56 59 59 58 56 51 41 30 23 20 17 16 14 13 15 21 27 35 43 53 65 76 82 84 85 85 84 83 82 80 79 78 76 75 78 79 79 77 78 80 79 78 80 82 85 85 82 80 79 75 72 71 69 64 59 55 51 50 50 47 47 48 42 34 31 32 33 33 32 31 28 26 27 28 24 19 16
24 25 26 29 32 36 40 43 46 49 52 56 59 60 58 56 52 42 30 24 21 18 17 15 12 12 17 24 31 39 48 60 71 79 84 86 86 85 84 83 81 81 80 77 79 79 77 75 75 77 78 77 76 77 79 84 85 83 81 79 76 74 72 72 72 68 62 56 53 52 50 48 50 46 37 35 35 34 34 34 33 32 30 30 31 30 25 19
23 25 27 30 33 37 40 43 46 49 52 55 59 61 59 57 52 44 32 24 21 19 17 16 12 10 14 21 28 35 44 54 65 75 82 85 86 86 86 84 83 82 81 81 82 80 77 77 77 77 76 76 76 78 80 84 85 84 83 79 77 76 74 73 74 72 69 64 58 56 53 48 49 49 42 37 36 35 36 36 35 35 33 33 34 33 29 23
23 24 27 30 34 37 40 43 46 49 52 55 59 61 60 57 53 44 33 24 21 19 17 15 12 10 12 18 25 33 40 49 60 71 79 84 85 87 88 86 84 83 83 85 84 81 80 81 79 76 76 77 78 80 82 85 87 87 85 82 80 79 76 75 75 73 72 70 64 60 58 52 49 49 45 41 38 35 36 37 37 37 35 35 36 33 30 26
22 24 27 30 34 37 40 43 46 49 52 55 58 61 61 58 54 46 36 26 21 18 17 15 12 10 10 15 22 29 36 45 55 66 75 82 85 86 88 87 86 86 86 86 84 82 83 82 78 77 78 79 80 81 84 87 87 87 86 84 84 81 77 77 77 75 73 72 69 64 62 59 54 50 47 43 41 38 36 36 38 39 38 38 38 36 32 30
22 24 26 30 33 37 40 43 46 48 51 54 57 61 62 59 55 48 37 28 22 18 16 15 13 10 9 12 18 25 33 42 52 62 71 79 84 87 88 88 89 89 88 87 85 84 83 82 79 79 79 80 83 84 87 87 86 86 86 84 84 82 80 79 79 77 75 74 72 67 64 62 59 54 50 46 43 40 38 37 36 38 39 38 38 37 35 33
22 23 26 29 32 36 39 42 45 48 50 53 57 60 62 60 56 50 40 30 23 18 15 14 13 11 9 9 14 21 29 37 47 58 68 77 83 86 88 90 91 91 89 88 87 85 83 82 81 82 81 81 85 86 86 87 86 86 86 85 85 85 83 82 80 78 77 75 74 71 66 63 60 57 54 51 48 44 40 39 37 35 37 38 36 37 36 34
22 23 25 28 31 35 38 42 45 47 50 53 56 59 62 61 57 52 44 33 25 19 15 13 12 11 10 8 10 18 26 33 42 52 65 74 80 85 89 90 91 90 89 87 85 84 83 82 82 81 79 80 84 85 85 86 85 85 86 85 86 87 86 84 81 80 79 77 76 74 69 65 62 59 56 54 54 51 46 42 39 34 34 36 36 37 37 35
22 23 25 27 30 34 37 41 44 46 49 52 55 58 61 62 59 54 47 38 28 21 17 14 12 10 11 9 8 14 22 29 37 46 58 70 78 84 87 89 89 88 85 84 83 83 82 83 83 80 77 79 83 84 83 85 84 84 84 84 85 88 88 86 83 81 81 79 78 78 73 69 65 61 58 56 56 56 51 45 41 37 34 34 35 36 36 35
22 23 25 27 29 33 36 39 42 45 47 50 54 57 60 62 61 56 50 42 32 24 18 15 12 11 11 10 8 10 17 25 33 41 51 63 75 82 85 86 88 87 85 85 84 83 82 82 81 79 79 80 81 83 83 83 84 84 84 83 84 88 89 88 85 83 83 82 81 80 77 74 70 65 60 57 56 57 55 49 43 39 36 35 35 35 35 35
22 23 25 26 29 32 35 38 41 44 47 49 52 55 59 62 62 58 52 45 36 27 20 16 13 11 12 11 8 8 12 20 28 36 45 56 68 77 82 85 86 86 86 86 85 85 85 84 82 80 80 80 80 83 83 82 84 84 84 84 85 88 90 89 87 86 85 84 83 83 81 79 76 70 65 60 56 56 57 55 49 41 37 36 36 35 36 36
23 23 25 26 28 31 34 37 40 43 46 49 51 54 57 60 62 59 55 49 40 30 22 17 13 12 12 12 10 8 9 14 22 30 39 49 59 70 78 82 84 85 86 87 87 87 86 85 85 83 82 81 82 83 82 81 82 84 84 84 85 88 91 91 89 89 88 86 86 86 86 83 79 75 71 66 61 57 55 55 53 47 40 37 36 36 36 36
23 23 25 26 27 30 33 35 38 42 44 47 50 53 55 59 61 60 56 51 45 35 26 19 15 12 12 13 11 9 10 12 17 25 33 41 51 61 72 80 83 85 88 89 88 87 86 84 84 83 81 81 80 81 81 80 82 84 85 85 86 87 88 89 91 92 91 91 90 89 88 87 83 79 75 72 69 64 59 53 51 50 45 39 35 35 37 37
23 22 24 26 27 29 31 33 37 40 43 46 49 52 54 57 60 60 57 53 49 41 31 21 15 12 12 12 12 11 11 11 14 21 28 35 42 52 65 76 83 86 88 89 87 86 85 84 84 82 80 78 78 79 81 81 81 83 84 85 86 86 87 89 92 93 93 93 93 92 90 88 86 83 79 75 73 71 66 58 52 50 50 43 34 33 37 38
23 23 24 25 27 29 30 32 35 38 42 45 48 51 53 55 58 59 58 55 52 47 37 27 18 13 11 11 12 12 11 12 13 16 22 30 37 45 56 68 78 83 85 86 87 86 86 85 84 82 80 80 81 82 82 82 81 83 84 86 87 88 89 89 92 94 95 95 95 93 89 86 86 85 83 79 76 72 68 62 55 52 52 48 37 32 35 38
23 23 24 25 26 28 30 32 34 37 41 43 46 49 51 54 56 58 58 56 54 51 44 34 23 15 12 10 11 12 12 13 14 15 18 24 32 41 49 58 69 78 83 86 88 89 88 86 83 82 81 82 82 82 82 82 81 82 85 87 89 89 88 89 92 94 95 97 97 94 90 86 86 86 85 83 80 75 68 62 57 54 52 51 45 38 36 36
23 23 24 25 26 28 30 32 34 37 40 42 45 47 50 52 54 56 57 56 55 54 50 42 30 20 14 10 10 11 12 14 16 16 18 21 27 34 43 52 61 72 81 86 89 90 89 87 85 84 84 83 82 82 81 80 81 83 84 85 87 87 89 91 93 94 95 97 98 97 93 89 88 88 87 85 82 79 73 65 59 55 53 53 50 43 38 38
24 23 23 24 26 28 31 32 33 36 39 42 44 46 49 51 53 55 56 57 56 55 53 48 38 27 18 13 10 9 11 13 16 17 18 20 24 30 39 49 57 66 75 83 87 90 89 88 87 87 87 87 86 86 84 82 82 83 83 85 88 91 93 94 94 95 96 97 99 98 94 91 90 89 88 85 83 82 78 72 65 59 55 55 51 43 37 39
25 24 24 24 25 28 31 32 33 35 38 41 43 45 48 50 52 54 55 56 56 56 56 53 45 34 23 16 11 9 9 12 15 17 19 21 24 29 35 43 51 60 69 77 83 87 89 88 88 88 88 88 88 88 87 85 86 86 86 89 92 93 93 93 94 95 96 97 98 97 94 91 89 88 86 84 83 82 80 77 73 67 60 57 53 46 40 39
26 24 24 24 25 27 30 32 34 35 37 39 42 45 47 49 51 53 54 55 56 56 57 56 51 42 31 21 14 10 9 11 13 16 18 21 25 28 32 37 44 53 64 72 78 84 88 89 89 89 88 88 88 89 89 89 90 90 92 94 93 92 91 91 93 94 96 96 95 92 90 89 88 87 86 84 80 80 81 80 77 76 70 63 59 53 47 44
26 25 24 24 24 26 29 32 34 35 36 39 41 43 46 47 49 51 53 54 55 56 56 56 54 48 38 27 19 13 10 10 12 14 17 20 24 28 31 34 40 48 58 66 72 80 87 89 90 90 90 89 90 91 91 91 91 92 95 95 92 91 90 90 92 94 95 95 91 86 85 88 88 86 86 83 73 70 78 82 78 79 78 72 66 60 53 50
26 25 24 24 24 26 28 31 34 35 36 38 40 42 44 46 48 50 52 53 54 55 55 56 56 52 45 34 24 17 12 10 11 13 15 18 22 26 30 33 37 42 50 58 65 74 84 89 89 89 90 91 93 95 94 92 92 94 95 93 91 90 90 90 92 93 94 93 89 84 82 84 87 87 86 81 70 64 74 83 81 80 81 79 74 66 58 54
26 25 24 24 24 25 28 31 34 35 35 37 39 41 43 45 47 48 51 52 53 54 54 55 56 54 49 41 31 21 15 12 12 13 15 17 21 24 28 31 35 38 42 49 58 68 78 85 88 89 91 94 95 94 93 92 93 95 93 91 90 89 88 89 91 92 92 92 89 87 84 82 84 88 88 83 74 69 72 76 79 81 82 80 79 75 66 60
Wind_Direction
301 300 300 300 299 299 299 298 297 297 296 295 294 291 287 280 271 264 258 254 249 246 244 240 236 232 228 227 225 223 220 218 217 217 215 214 214 215 216 216 216 217 217 218 217 215 213 211 209 209 209 209 209 209 211 209 208 219 219 223 229 206 198 210 229 260 307 325 167 56 50 46 33 37 32 27 27 28 31 34 35 36 38 38 37 37 37 35
300 299 298 298 298 298 298 297 296 295 294 293 291 289 288 284 277 269 261 256 251 247 244 241 239 236 233 229 227 226 223 220 218 217 216 214 215 215 215 216 216 216 217 217 217 216 213 211 209 208 208 208 208 207 209 211 212 219 222 228 230 213 216 212 204 240 286 291 223 235 23 39 32 31 30 24 24 30 33 37 37 37 38 38 39 39 41 40
299 297 297 296 296 296 295 295 294 293 291 289 288 286 285 284 281 276 268 260 254 250 246 241 239 238 236 234 230 228 226 222 219 218 217 215 215 216 215 216 216 216 216 217 216 216 214 211 209 208 207 208 207 205 207 212 213 218 225 228 228 222 227 230 219 232 267 283 254 238 275 345 5 16 27 23 23 31 36 40 40 37 37 38 40 40 41 42
298 297 296 295 294 294 292 292 291 290 289 287 286 284 283 282 280 279 274 268 260 254 248 243 240 237 236 236 234 230 228 226 222 218 217 216 216 216 216 215 216 217 216 216 215 216 215 211 210 207 207 207 207 207 207 211 209 216 229 228 228 227 229 236 225 220 238 285 277 239 246 323 6 23 33 28 28 34 39 42 42 38 36 36 39 40 40 40
296 295 295 295 294 293 292 290 289 289 287 286 284 282 281 279 277 276 274 272 267 261 254 248 243 239 236 235 235 234 230 229 225 220 218 217 216 216 216 215 215 216 217 216 215 215 215 212 209 208 207 206 207 208 209 211 206 212 230 229 227 225 225 222 207 219 224 259 270 237 241 311 43 42 41 34 31 34 37 43 43 39 36 34 37 40 40 39
294 294 294 295 295 294 293 291 290 289 287 285 283 280 279 277 275 273 271 270 269 266 261 255 248 242 238 235 234 234 233 232 227 222 221 217 217 218 216 216 215 216 217 216 215 215 214 212 209 208 207 205 206 208 210 211 206 208 222 226 226 225 227 212 204 218 212 229 254 234 229 217 91 43 46 35 29 30 32 42 43 40 37 34 35 40 41 39
295 295 294 294 295 294 294 294 292 291 289 286 284 281 279 276 274 272 269 268 267 267 265 261 255 249 243 238 234 232 232 235 230 224 224 219 217 218 217 217 216 216 216 216 216 215 214 212 209 208 207 204 205 208 210 212 208 212 219 220 223 224 226 211 202 207 202 213 233 226 223 204 177 359 48 34 25 25 29 39 43 40 38 35 32 37 41 40
298 297 296 296 295 295 295 294 294 293 291 289 286 283 279 276 274 270 268 266 265 265 264 263 260 255 250 243 238 233 231 235 231 225 225 221 217 217 217 217 216 216 215 214 216 216 214 212 209 208 206 204 205 207 210 210 207 214 218 217 219 217 210 206 204 207 207 210 219 214 217 218 212 236 234 81 31 24 27 36 40 38 38 35 31 33 40 41
301 300 299 298 297 296 295 294 294 293 292 290 287 283 280 276 274 270 268 266 265 265 265 264 262 258 254 248 243 236 231 235 233 226 225 224 219 218 217 217 216 215 215 214 214 216 215 212 209 208 206 205 205 206 209 209 207 212 217 214 215 215 206 203 206 211 213 213 222 223 219 223 220 224 215 162 45 18 23 28 33 33 33 35 31 30 37 41
303 302 301 300 299 297 296 295 294 293 292 290 287 283 280 276 274 271 269 267 265 265 265 264 264 261 257 251 246 239 235 237 235 226 224 225 221 219 218 217 216 215 215 214 213 214 215 213 210 207 206 205 205 206 208 210 211 213 217 213 212 215 207 201 200 204 215 213 221 234 227 221 215 213 216 191 224 300 288 15 32 27 26 31 30 30 35 40
303 303 302 301 300 299 297 296 294 293 291 289 287 284 281 278 275 272 270 267 265 264 263 263 263 261 259 254 248 241 239 240 237 227 222 224 222 220 219 217 216 214 214 214 213 212 214 214 211 207 205 207 205 205 208 209 212 215 217 214 211 212 208 205 200 198 214 212 210 225 222 216 225 241 247 226 228 258 246 234 48 28 22 26 28 29 33 39
303 303 303 302 300 299 298 296 294 292 290 289 287 285 283 279 276 274 271 269 266 264 263 262 261 260 257 255 249 242 239 239 237 229 221 223 223 221 220 217 216 215 214 214 213 211 212 214 213 208 204 207 207 204 208 208 210 214 215 214 211 210 206 202 202 202 206 210 209 216 216 215 235 257 258 244 231 243 245 237 340 24 20 20 24 27 32 37
304 304 304 303 301 300 298 296 294 292 290 288 287 285 283 281 278 276 274 271 269 268 266 264 262 259 255 252 248 243 240 238 238 232 223 222 223 221 221 218 216 215 214 213 212 211 211 212 213 210 205 207 207 204 207 209 209 212 213 213 213 212 206 198 199 198 198 216 219 214 215 221 238 255 269 261 238 234 240 238 242 337 17 12 17 24 31 36
305 305 305 304 302 300 298 296 294 292 290 289 288 286 285 283 281 279 277 275 273 271 269 265 262 258 253 249 245 241 239 238 237 234 225 222 222 221 221 219 216 215 215 214 212 211 211 211 212 211 206 206 207 205 206 208 208 211 212 212 213 213 207 199 200 198 198 210 215 215 220 229 239 248 273 267 239 221 234 246 244 233 14 2 7 20 31 36
307 306 306 305 303 301 299 296 294 292 291 290 289 287 286 285 284 282 281 278 276 272 268 264 259 254 249 245 242 238 236 235 236 234 227 223 221 220 220 220 217 215 214 214 213 211 211 211 210 211 209 205 206 206 206 208 209 210 211 212 214 215 212 208 209 209 208 209 213 220 224 229 235 240 255 257 233 210 233 267 253 227 202 343 355 8 28 37
308 307 307 306 304 301 299 296 294 293 292 291 289 288 287 287 287 286 284 281 277 272 267 261 256 250 245 242 239 236 233 233 234 234 228 223 221 219 218 219 218 216 214 213 213 212 212 212 210 210 210 206 206 205 205 207 210 210 210 211 215 218 219 217 214 216 219 220 222 223 222 223 228 234 244 245 225 208 226 275 255 228 214 295 331 349 14 33
309 309 308 306 304 301 298 296 295 294 293 292 291 291 292 292 292 290 287 284 279 273 267 260 253 247 242 238 236 233 230 229 230 231 228 223 221 219 217 217 217 216 215 213 213 212 212 212 210 210 210 208 206 205 204 206 210 210 210 212 214 216 219 218 216 217 221 225 225 221 218 216 215 224 234 233 219 210 223 254 247 228 228 264 295 324 345 20
311 310 309 307 304 301 299 298 297 296 296 296 297 298 299 298 297 295 292 287 281 275 267 259 252 245 240 235 232 229 226 225 226 228 226 222 220 219 216 215 216 215 215 213 212 213 212 211 210 209 209 208 207 206 205 206 209 208 210 212 212 214 217 216 216 213 209 213 216 217 220 214 207 214 222 223 216 214 240 257 253 241 238 253 273 295 308 335
313 312 310 308 305 303 302 300 300 301 303 305 305 305 305 304 303 300 297 292 285 277 267 258 250 242 236 232 228 226 223 222 223 225 224 221 220 218 216 214 214 215 214 213 212 213 212 210 209 209 208 207 207 207 205 207 208 207 208 211 210 212 214 213 213 205 195 200 210 214 219 215 208 209 216 222 214 211 245 258 253 245 241 243 255 273 280 283
314 313 311 308 306 306 304 304 306 310 311 311 311 311 311 310 308 305 301 296 289 279 268 257 247 239 233 228 225 222 220 219 220 221 222 220 219 218 216 213 213 214 214 213 212 212 212 210 209 209 208 207 206 207 206 206 208 206 207 209 208 209 211 210 208 200 193 194 204 211 216 217 212 212 219 223 217 211 231 248 245 246 251 246 244 257 265 263
316 314 311 310 309 307 307 310 315 317 316 316 316 317 316 315 313 309 306 300 292 281 269 256 245 236 229 224 222 220 218 216 216 218 218 218 218 217 215 213 212 212 213 213 212 211 211 211 210 209 209 208 206 206 207 206 207 206 206 207 207 209 209 206 202 199 196 194 199 207 213 215 217 218 220 224 228 225 221 228 239 250 262 255 240 244 254 250
317 314 312 312 310 310 313 319 321 321 320 321 321 321 320 318 316 314 310 305 296 283 269 255 243 233 226 221 219 217 216 214 214 214 215 216 216 215 214 212 211 211 212 212 212 211 211 211 211 210 209 208 206 205 207 207 207 206 206 206 207 208 208 202 198 197 198 198 200 206 211 214 217 220 223 227 236 233 224 222 229 242 259 262 243 236 245 243
318 315 314 313 312 315 322 326 325 324 324 324 324 324 323 322 321 319 315 309 298 284 269 255 243 232 224 219 216 213 212 212 212 212 212 213 214 214 213 212 211 211 211 211 211 210 210 211 211 210 209 209 207 205 206 207 207 205 206 207 206 207 208 205 202 199 198 200 201 203 207 210 213 218 222 226 231 232 230 228 230 236 250 263 250 235 239 238
318 316 316 315 316 323 329 330 329 328 328 327 327 327 328 327 326 325 319 311 299 284 270 256 244 233 224 217 213 210 209 209 209 210 210 210 211 212 212 211 210 210 210 210 210 210 210 210 211 210 209 208 207 206 206 207 207 206 207 207 205 206 208 208 205 203 201 200 199 200 202 202 204 211 217 224 226 226 227 229 232 234 240 254 251 235 234 234
319 317 317 317 323 330 333 332 331 330 330 330 331 331 332 332 331 329 322 312 300 285 272 258 246 235 225 218 212 208 207 207 207 208 208 208 209 210 211 210 210 210 209 209 208 209 210 210 211 211 209 209 208 207 206 206 207 208 208 207 205 206 208 210 209 206 204 204 203 204 205 205 205 208 215 223 225 221 220 223 229 232 234 245 246 233 229 231
319 317 318 321 329 335 335 334 333 332 333 334 335 336 336 337 336 333 325 314 303 290 278 263 248 236 226 219 213 208 206 205 205 206 206 206 207 208 209 209 210 210 209 208 207 208 210 210 211 211 210 209 208 208 207 206 207 209 208 207 206 208 209 211 211 210 211 211 210 208 208 210 210 211 215 221 225 224 221 220 225 232 234 241 245 233 224 227
319 317 320 327 334 338 337 336 335 336 337 338 339 339 340 341 340 336 329 319 308 298 287 269 250 236 226 219 213 209 205 204 204 205 205 204 205 206 207 208 209 209 208 208 206 207 209 210 210 210 210 209 208 208 207 206 207 209 209 207 207 209 209 208 208 208 210 210 209 208 207 208 207 208 212 217 222 224 224 222 223 228 230 238 246 235 221 224
319 319 323 331 338 341 339 337 338 339 340 341 342 342 344 345 344 340 334 326 316 307 297 278 255 236 224 218 213 209 205 203 203 203 203 203 204 205 206 207 208 208 208 207 206 206 209 210 210 210 210 209 207 208 208 206 207 209 208 207 208 209 208 206 205 205 207 207 207 207 206 206 205 205 209 214 219 222 226 226 221 219 221 234 243 233 219 223
319 320 325 334 340 342 340 338 339 341 343 344 345 346 347 348 348 345 339 332 323 314 307 290 262 238 223 216 212 209 206 204 203 202 201 202 203 204 205 206 207 207 207 207 206 207 208 209 209 209 210 208 206 207 208 207 208 208 208 207 207 209 208 206 205 206 207 207 208 207 205 207 207 207 209 213 220 224 227 226 218 213 216 230 238 228 220 229
319 322 328 336 341 343 341 340 341 344 345 347 349 350 351 352 352 349 343 335 327 324 321 307 275 244 225 216 212 208 205 204 203 201 201 201 202 203 204 205 206 207 207 207 208 209 209 209 208 209 210 208 208 209 208 209 208 208 209 208 207 209 209 207 207 208 209 208 208 209 207 207 208 209 210 212 220 225 226 225 220 215 216 225 230 225 227 240
319 324 331 338 343 343 342 341 343 346 348 350 352 353 354 355 355 352 347 338 332 333 330 318 293 253 229 217 211 208 205 204 203 202 201 201 201 202 203 205 205 206 206 207 209 209 209 208 209 210 209 208 208 210 210 211 209 208 209 209 208 209 211 210 209 210 212 211 211 211 210 209 210 212 213 214 218 223 225 227 225 221 218 219 221 222 228 241
320 326 333 341 344 344 342 343 345 348 350 353 355 357 357 358 358 355 351 343 336 336 331 322 304 262 230 218 211 208 206 203 202 202 202 201 201 201 202 203 205 206 206 207 209 209 208 207 207 208 208 207 208 209 210 211 210 208 209 209 209 210 212 213 212 212 214 215 214 213 212 212 212 212 211 211 213 219 224 228 229 226 221 215 213 219 228 238
321 328 336 342 344 344 343 344 347 349 352 355 358 359 360 1 1 357 353 347 339 334 332 327 312 276 236 219 212 209 206 203 202 202 202 201 201 201 202 202 203 205 206 208 208 208 208 206 205 206 207 207 208 209 210 211 209 208 208 209 209 209 211 212 214 214 214 216 216 215 214 212 210 209 207 206 207 212 219 225 227 227 222 217 215 220 231 239
322 329 337 343 345 344 344 346 348 351 354 357 360 1 2 3 3 0 355 349 343 336 334 334 322 295 251 223 214 209 207 205 202 202 202 202 201 202 203 202 203 204 206 208 208 208 208 206 204 206 206 206 208 209 211 211 209 208 208 209 210 209 210 212 214 214 214 216 216 216 216 212 209 209 207 204 204 207 212 216 221 224 222 219 220 225 231 236
323 329 337 343 345 344 344 346 349 352 355 358 1 3 4 5 5 3 358 351 346 341 335 333 327 313 279 237 218 210 209 207 204 202 201 202 202 202 203 203 203 204 206 207 207 208 209 206 204 205 206 206 208 209 210 210 209 208 207 209 211 210 210 212 213 214 214 215 215 217 217 214 212 214 212 207 205 206 207 209 215 222 223 222 225 230 231 232
322 329 337 343 345 344 345 347 350 353 356 359 2 3 5 6 6 6 2 355 348 343 336 330 327 324 306 261 226 214 211 209 207 203 201 201 202 203 203 204 205 205 205 206 207 207 209 207 205 205 205 206 209 209 209 209 209 208 207 209 211 211 210 212 212 213 214 214 215 216 218 217 216 217 217 213 210 208 206 208 212 220 227 228 229 234 235 233
322 328 336 342 345 345 345 347 351 353 356 360 2 4 5 7 7 7 6 1 353 345 338 330 330 330 315 283 238 219 213 211 209 206 203 201 202 204 204 204 205 206 206 207 207 208 209 207 206 206 205 208 210 210 209 210 209 208 207 208 211 211 211 211 212 213 214 213 215 216 218 219 218 217 218 217 214 211 208 209 211 214 223 229 231 236 240 237
321 327 334 341 344 345 345 348 351 353 357 0 2 4 5 7 8 8 8 6 359 350 342 333 333 328 312 297 260 228 217 213 210 209 206 203 203 204 205 205 206 206 207 208 209 209 210 209 206 205 206 209 212 211 210 210 209 208 208 208 211 213 212 211 212 213 214 213 214 216 217 218 217 214 214 216 217 214 209 208 209 207 213 224 230 235 241 240
320 325 333 339 343 345 346 348 351 353 357 1 2 3 5 7 8 9 9 8 4 356 347 337 332 320 307 306 289 244 224 216 211 209 208 206 205 205 205 206 206 206 206 208 209 209 211 211 208 206 207 210 213 213 210 209 209 209 208 208 211 213 212 212 212 213 214 213 214 215 216 217 215 212 210 213 216 214 210 209 208 205 209 218 227 234 239 239
318 323 331 337 342 344 346 348 350 353 357 0 3 3 5 7 8 9 9 10 7 1 352 341 331 316 303 303 299 269 237 223 215 211 210 209 208 206 205 206 206 207 207 208 208 209 210 211 209 208 208 210 214 214 211 209 210 209 208 209 211 213 213 213 212 213 214 214 214 215 215 216 215 213 210 210 212 213 212 212 210 207 209 215 222 231 236 237
316 321 329 336 340 343 345 347 350 353 357 360 2 3 4 6 8 9 10 10 9 5 358 346 332 314 300 296 298 290 260 232 219 214 212 210 210 208 207 206 206 207 208 209 209 209 210 210 209 208 208 210 213 215 212 209 210 210 208 209 212 214 214 213 213 213 215 214 214 215 216 216 215 215 213 212 212 213 214 214 214 212 212 214 219 225 232 236
314 319 326 332 338 341 344 347 350 353 357 359 1 2 4 6 8 10 10 10 10 8 3 354 338 319 304 297 294 285 269 246 224 215 213 211 211 210 209 208 206 207 209 209 209 210 211 211 211 210 209 210 213 215 213 210 211 211 209 209 212 214 214 215 215 214 215 215 214 214 215 215 215 216 216 215 216 217 218 218 218 216 214 215 219 223 227 232
310 315 322 328 335 340 343 347 350 353 355 358 0 2 3 5 8 10 10 10 11 9 6 0 347 328 310 298 289 276 265 257 238 222 214 210 210 211 211 209 208 208 209 211 210 210 211 212 212 211 210 211 214 217 216 212 211 212 211 210 212 214 214 215 216 215 216 216 216 214 214 215 216 217 218 218 219 220 222 223 222 219 215 214 219 226 226 226
308 312 319 326 332 336 340 346 351 353 354 357 360 1 2 5 7 9 10 11 11 10 8 4 356 340 320 299 287 278 265 256 248 234 221 211 209 211 212 211 210 209 210 211 211 211 212 212 212 212 211 212 214 216 216 214 212 213 212 211 212 214 215 215 216 216 216 217 217 216 214 215 216 218 220 221 221 222 224 225 223 221 217 214 215 223 225 225
305 309 316 323 329 333 337 344 350 352 353 356 359 360 1 3 6 8 10 11 12 11 10 7 1 350 333 308 288 279 268 254 245 238 228 216 211 212 212 212 211 211 211 211 211 212 211 211 212 213 212 213 215 217 217 216 214 214 214 213 212 214 215 216 217 217 217 218 218 216 215 215 217 218 219 221 223 223 222 222 222 221 218 214 214 218 222 223
302 305 312 320 326 331 335 342 349 351 352 354 357 359 360 2 5 7 9 10 11 12 11 9 4 356 343 323 297 280 267 254 243 235 229 222 217 215 212 211 211 212 212 212 212 212 211 210 211 212 212 213 215 218 218 218 217 217 216 215 214 215 217 217 217 217 217 217 218 216 214 214 217 218 219 219 221 223 222 220 221 221 218 215 218 222 222 220
299 302 309 317 324 328 332 339 346 350 351 352 355 357 359 0 3 5 7 9 10 11 11 10 7 1 350 335 313 287 269 255 245 236 230 224 222 221 217 212 211 212 214 213 213 213 212 211 211 211 212 212 213 216 217 218 219 219 217 217 217 217 218 217 217 217 218 218 218 217 215 214 216 219 219 219 220 222 222 221 221 222 219 217 220 221 219 217
297 299 306 314 322 326 330 336 343 347 349 351 353 356 357 358 1 3 5 7 9 9 10 10 8 4 357 343 325 301 274 257 246 237 230 224 224 226 223 217 213 214 215 214 214 214 213 212 212 212 213 213 214 215 216 216 218 219 218 219 219 218 218 218 218 219 219 219 219 218 216 215 217 219 220 220 221 222 223 222 221 222 221 221 220 215 214 216
294 296 303 312 319 324 327 333 338 343 347 349 351 354 355 357 359 1 3 6 7 8 8 9 9 6 1 351 336 315 287 265 251 239 230 224 224 227 227 223 217 216 216 215 215 215 214 213 213 213 213 214 215 216 217 217 217 218 219 219 218 218 218 218 219 220 220 220 220 219 219 217 217 220 221 222 221 223 224 224 224 223 223 225 223 216 216 220
291 293 300 308 316 322 325 330 334 339 344 347 349 352 354 355 357 359 1 4 5 6 6 7 8 7 3 356 345 329 305 276 258 245 233 225 224 226 229 228 223 220 218 216 215 216 215 213 213 213 213 214 216 216 217 219 219 220 220 220 218 218 218 218 219 220 221 220 219 219 220 219 218 219 221 222 222 224 224 224 225 225 224 225 224 219 217 219
288 290 297 305 313 319 323 326 330 336 341 344 346 350 352 353 355 357 359 1 3 4 4 5 5 6 4 360 351 338 319 292 267 252 239 229 225 225 227 230 230 227 223 218 217 217 217 214 214 214 214 215 216 216 217 218 220 222 223 221 219 218 218 219 219 220 221 220 218 217 219 220 219 218 220 219 219 223 224 223 225 226 225 224 224 223 219 218
285 288 294 302 310 317 322 324 326 332 338 342 344 347 349 351 353 354 357 359 1 2 2 2 3 4 4 2 356 345 329 308 282 262 248 237 231 227 227 229 231 232 229 223 219 219 218 216 214 215 215 215 217 217 217 218 220 223 223 223 222 221 220 220 221 221 221 220 219 217 217 218 218 217 218 217 217 221 223 222 223 225 225 225 225 225 223 221
Height
10945 10945 10945 10944 10944 10944 10944 10944 10944 10943 10943 10943 10943 10943 10943 10944 10944 10945 10946 10946 10947 10948 10949 10951 10952 10954 10955 10957 10958 10961 10963 10965 10968 10970 10974 10977 10979 10981 10984 10987 10990 10993 10995 10998 11000 11003 11006 11008 11010 11011 11013 11015 11017 11019 11021 11022 11023 11024 11024 11026 11027 11028 11029 11030 11030 11031 11031 11031 11031 11031 11031 11031 11031 11030 11029 11028 11028 11028 11027 11026 11025 11024 11022 11021 11019 11017 11014 11013
10943 10943 10942 10942 10942 10942 10941 10941 10941 10941 10941 10941 10941 10941 10941 10941 10942 10942 10943 10944 10944 10945 10946 10948 10949 10950 10952 10953 10955 10957 10959 10961 10964 10967 10970 10973 10975 10978 10981 10984 10987 10989 10992 10994 10997 11000 11003 11006 11008 11010 11012 11014 11016 11019 11021 11021 11022 11022 11022 11024 11026 11027 11028 11029 11029 11030 11031 11031 11031 11031 11031 11031 11031 11031 11030 11030 11029 11029 11028 11028 11027 11026 11024 11023 11021 11019 11017 11015
10941 10941 10940 10940 10940 10939 10939 10939 10938 10938 10938 10938 10938 10938 10938 10938 10938 10939 10940 10941 10941 10942 10943 10945 10946 10947 10949 10950 10952 10953 10955 10958 10960 10963 10966 10970 10972 10974 10977 10980 10983 10985 10988 10991 10995 10998 11000 11004 11006 11008 11010 11012 11014 11018 11020 11020 11021 11022 11022 11024 11025 11026 11028 11028 11029 11030 11030 11031 11032 11032 11032 11032 11032 11032 11031 11031 11031 11030 11030 11029 11028 11027 11026 11024 11023 11021 11019 11017
10939 10938 10938 10938 10937 10937 10936 10936 10936 10936 10935 10935 10935 10935 10935 10935 10936 10936 10936 10937 10938 10939 10940 10941 10943 10944 10945 10947 10948 10950 10952 10954 10956 10959 10963 10966 10968 10970 10973 10976 10979 10981 10984 10988 10991 10994 10997 11001 11004 11006 11008 11010 11013 11015 11017 11018 11021 11024 11024 11024 11023 11025 11027 11028 11029 11030 11030 11031 11032 11032 11032 11032 11032 11033 11032 11032 11032 11031 11031 11031 11030 11029 11027 11026 11024 11023 11021 11019
10936 10936 10935 10935 10935 10934 10933 10933 10932 10932 10932 10932 10932 10932 10932 10932 10932 10933 10933 10934 10934 10935 10936 10938 10939 10940 10942 10943 10945 10946 10948 10949 10951 10956 10958 10961 10964 10966 10968 10971 10974 10977 10980 10984 10988 10991 10995 10998 11001 11004 11006 11009 11011 11013 11014 11015 11020 11025 11023 11021 11022 11023 11025 11028 11030 11031 11031 11031 11031 11032 11032 11033 11033 11033 11033 11033 11033 11032 11032 11032 11031 11030 11029 11027 11026 11025 11023 11021
10934 10933 10933 10932 10932 10931 10930 10929 10929 10929 10929 10929 10928 10928 10928 10928 10929 10929 10930 10930 10930 10931 10932 10934 10935 10937 10938 10939 10940 10942 10944 10944 10947 10952 10954 10957 10960 10961 10964 10967 10970 10973 10977 10982 10985 10987 10991 10995 10999 11002 11004 11006 11008 11009 11010 11012 11016 11019 11017 11018 11021 11022 11025 11027 11031 11033 11031 11031 11031 11032 11032 11033 11033 11033 11033 11033 11033 11033 11033 11033 11032 11031 11030 11029 11028 11026 11025 11024
10931 10930 10930 10929 10929 10928 10927 10926 10926 10925 10925 10924 10924 10924 10924 10924 10924 10925 10925 10926 10926 10927 10928 10929 10931 10933 10934 10935 10937 10938 10940 10940 10943 10948 10949 10952 10955 10957 10960 10963 10966 10969 10973 10978 10981 10984 10987 10992 10996 10999 11001 11004 11005 11007 11008 11010 11014 11014 11012 11015 11019 11022 11025 11027 11030 11033 11032 11032 11032 11032 11032 11032 11033 11033 11033 11034 11034 11034 11034 11033 11033 11032 11031 11030 11029 11028 11027 11026
10928 10927 10927 10926 10925 10924 10924 10923 10922 10921 10921 10920 10920 10919 10919 10919 10920 10920 10921 10921 10922 10922 10923 10924 10926 10928 10929 10931 10933 10934 10937 10936 10937 10941 10943 10945 10949 10951 10954 10958 10961 10965 10969 10974 10977 10980 10983 10988 10992 10995 10998 11001 11003 11005 11006 11007 11011 11010 11009 11013 11018 11022 11025 11027 11030 11034 11033 11032 11031 11031 11032 11032 11032 11033 11034 11034 11034 11034 11034 11034 11034 11033 11032 11031 11030 11030 11028 11027
10924 10924 10923 10922 10921 10921 10920 10919 10918 10917 10916 10916 10915 10915 10914 10914 10914 10915 10915 10916 10917 10917 10918 10919 10920 10922 10924 10926 10928 10930 10934 10931 10928 10934 10937 10939 10943 10946 10948 10952 10955 10960 10964 10968 10972 10975 10980 10984 10988 10991 10995 10998 11000 11003 11004 11005 11008 11008 11008 11013 11017 11021 11024 11027 11031 11034 11034 11031 11030 11030 11031 11031 11032 11033 11034 11034 11034 11034 11035 11035 11034 11034 11033 11032 11032 11031 11030 11029
10921 10920 10919 10918 10917 10916 10915 10915 10914 10913 10912 10911 10910 10910 10909 10908 10908 10909 10909 10910 10911 10911 10912 10913 10915 10916 10918 10920 10922 10926 10929 10924 10920 10927 10932 10933 10937 10940 10943 10946 10950 10955 10959 10963 10967 10971 10976 10980 10982 10987 10992 10995 10997 11000 11001 11002 11004 11005 11008 11012 11016 11019 11022 11025 11028 11031 11031 11031 11030 11030 11030 11030 11031 11032 11033 11034 11035 11035 11035 11035 11035 11034 11034 11034 11033 11032 11031 11031
10917 10916 10915 10914 10913 10912 10911 10910 10909 10908 10907 10906 10905 10904 10903 10903 10902 10902 10903 10904 10904 10905 10906 10907 10909 10909 10912 10913 10917 10922 10922 10916 10913 10919 10926 10927 10931 10935 10937 10941 10945 10949 10954 10958 10962 10967 10972 10975 10978 10983 10988 10991 10994 10997 10998 10999 11001 11003 11006 11010 11014 11017 11019 11023 11025 11026 11028 11029 11029 11028 11028 11029 11031 11032 11033 11034 11035 11035 11035 11035 11035 11035 11034 11034 11034 11033 11032 11032
10914 10912 10911 10910 10908 10907 10906 10905 10903 10902 10901 10900 10899 10897 10897 10896 10896 10896 10896 10896 10897 10898 10899 10900 10902 10902 10905 10906 10910 10913 10911 10909 10906 10911 10920 10921 10924 10929 10931 10936 10940 10944 10948 10952 10957 10963 10967 10970 10974 10978 10983 10986 10989 10992 10994 10995 10998 11001 11004 11008 11012 11015 11017 11020 11022 11023 11025 11027 11027 11026 11026 11028 11030 11031 11032 11033 11034 11035 11035 11035 11035 11035 11035 11035 11035 11034 11033 11033
10910 10909 10907 10905 10904 10902 10901 10899 10898 10896 10895 10894 10892 10891 10890 10889 10889 10889 10888 10889 10889 10890 10890 10892 10893 10894 10896 10898 10901 10902 10902 10904 10901 10904 10914 10916 10918 10923 10926 10930 10935 10939 10943 10947 10953 10958 10961 10964 10969 10974 10978 10980 10983 10987 10989 10992 10996 10999 11002 11006 11009 11013 11015 11017 11019 11021 11023 11025 11027 11025 11025 11027 11029 11030 11031 11032 11034 11034 11035 11035 11035 11035 11035 11035 11035 11035 11035 11034
10906 10904 10903 10901 10899 10897 10895 10894 10892 10890 10889 10887 10886 10884 10883 10882 10881 10881 10880 10881 10880 10880 10880 10881 10883 10884 10886 10889 10890 10892 10895 10897 10895 10897 10908 10911 10913 10917 10920 10925 10930 10934 10938 10943 10948 10952 10955 10959 10964 10968 10972 10975 10980 10985 10986 10989 10994 10997 11000 11002 11005 11009 11012 11014 11016 11018 11020 11023 11025 11023 11024 11026 11028 11030 11031 11032 11032 11034 11035 11035 11035 11035 11035 11035 11036 11036 11035 11035
10902 10900 10898 10896 10894 10892 10890 10888 10886 10884 10882 10881 10879 10878 10876 10875 10873 10872 10871 10871 10870 10869 10869 10869 10871 10872 10875 10877 10878 10883 10887 10889 10888 10891 10899 10904 10906 10911 10915 10919 10924 10928 10932 10937 10941 10946 10950 10953 10957 10962 10968 10972 10977 10982 10985 10988 10992 10994 10997 10999 11001 11004 11008 11012 11014 11016 11018 11020 11022 11022 11023 11026 11027 11029 11031 11031 11032 11033 11034 11034 11035 11035 11035 11035 11036 11036 11036 11036
10897 10894 10892 10890 10888 10886 10884 10882 10880 10878 10876 10875 10873 10871 10869 10867 10865 10863 10861 10859 10858 10857 10857 10857 10859 10860 10863 10865 10868 10874 10878 10881 10881 10882 10888 10895 10899 10904 10908 10912 10917 10921 10926 10931 10935 10940 10943 10945 10952 10958 10964 10968 10972 10977 10982 10987 10989 10990 10993 10996 10998 11001 11005 11009 11012 11014 11016 11018 11020 11021 11022 11024 11027 11028 11030 11031 11031 11032 11033 11034 11035 11035 11035 11035 11036 11037 11037 11037
10891 10889 10887 10884 10882 10880 10878 10876 10874 10872 10871 10869 10867 10864 10861 10859 10856 10853 10850 10847 10845 10844 10844 10844 10845 10847 10851 10855 10859 10863 10867 10871 10872 10872 10879 10887 10891 10896 10901 10904 10909 10915 10920 10925 10929 10933 10935 10941 10949 10955 10959 10965 10969 10973 10978 10982 10983 10985 10990 10993 10996 11000 11003 11007 11010 11012 11014 11016 11017 11019 11020 11023 11025 11027 11029 11030 11030 11031 11032 11033 11034 11034 11035 11035 11036 11037 11037 11037
10886 10884 10881 10879 10876 10874 10872 10870 10869 10867 10864 10862 10859 10856 10853 10849 10845 10842 10838 10835 10832 10830 10830 10830 10831 10834 10839 10842 10845 10851 10856 10859 10860 10862 10870 10879 10884 10888 10893 10897 10902 10908 10913 10917 10922 10926 10930 10938 10945 10950 10955 10960 10964 10968 10972 10975 10977 10981 10987 10990 10994 10998 11001 11004 11007 11009 11012 11014 11015 11016 11018 11020 11023 11025 11027 11028 11029 11030 11031 11032 11033 11034 11034 11035 11036 11037 11037 11037
10881 10878 10875 10873 10870 10868 10867 10865 10863 10861 10858 10854 10851 10848 10844 10839 10834 10830 10825 10822 10818 10815 10815 10815 10816 10820 10824 10827 10832 10838 10842 10845 10849 10854 10862 10870 10875 10879 10884 10890 10895 10900 10905 10910 10915 10920 10925 10933 10940 10944 10948 10952 10957 10961 10966 10969 10973 10978 10983 10987 10991 10995 10998 11000 11002 11004 11008 11011 11012 11014 11016 11018 11021 11023 11025 11027 11027 11028 11029 11030 11031 11032 11033 11034 11035 11036 11037 11037
10875 10872 10870 10867 10865 10863 10861 10860 10857 10854 10851 10847 10843 10839 10834 10828 10823 10817 10812 10808 10804 10801 10800 10799 10801 10804 10807 10812 10816 10820 10826 10834 10841 10846 10854 10861 10866 10870 10877 10883 10888 10894 10899 10903 10909 10914 10921 10928 10933 10938 10941 10945 10950 10956 10961 10965 10969 10975 10979 10983 10988 10991 10994 10996 10998 11001 11005 11008 11010 11012 11015 11017 11019 11021 11022 11024 11025 11026 11028 11029 11030 11031 11032 11033 11034 11035 11036 11037
10870 10867 10865 10862 10860 10859 10856 10854 10851 10848 10844 10840 10835 10830 10824 10818 10812 10806 10800 10794 10790 10786 10785 10785 10786 10789 10792 10797 10801 10807 10816 10824 10830 10836 10844 10850 10855 10862 10869 10875 10881 10886 10891 10896 10902 10909 10915 10922 10927 10931 10935 10939 10945 10952 10957 10960 10964 10969 10975 10979 10983 10987 10990 10993 10996 11000 11003 11006 11008 11011 11014 11016 11018 11019 11020 11022 11023 11024 11025 11027 11029 11030 11031 11032 11033 11034 11036 11037
10865 10862 10860 10858 10856 10854 10852 10849 10846 10842 10837 10833 10827 10821 10815 10808 10801 10794 10787 10781 10777 10773 10771 10771 10772 10775 10779 10783 10789 10798 10807 10813 10819 10825 10833 10839 10846 10853 10860 10868 10874 10879 10884 10889 10896 10904 10910 10915 10919 10924 10929 10933 10940 10946 10951 10955 10959 10965 10971 10975 10979 10982 10986 10990 10994 10997 11001 11005 11008 11009 11011 11013 11016 11018 11019 11019 11020 11022 11023 11025 11027 11028 11030 11031 11032 11033 11035 11036
10861 10858 10856 10854 10852 10850 10847 10844 10840 10836 10831 10826 10820 10813 10807 10799 10791 10783 10775 10769 10765 10762 10760 10760 10761 10763 10766 10771 10778 10786 10794 10801 10808 10814 10821 10829 10837 10846 10853 10860 10866 10872 10878 10884 10891 10898 10904 10908 10912 10916 10922 10927 10934 10940 10945 10950 10954 10961 10966 10969 10974 10977 10982 10986 10990 10994 10998 11002 11005 11007 11008 11011 11013 11016 11017 11017 11017 11019 11021 11023 11025 11027 11029 11030 11031 11033 11034 11035
10856 10854 10852 10850 10848 10845 10842 10839 10834 10830 10824 10819 10812 10806 10798 10790 10782 10773 10765 10759 10755 10752 10751 10751 10751 10753 10756 10761 10767 10774 10782 10790 10797 10804 10812 10820 10829 10838 10844 10852 10859 10865 10871 10878 10885 10892 10895 10900 10904 10910 10916 10922 10928 10933 10939 10945 10951 10957 10959 10963 10969 10973 10977 10982 10987 10992 10995 10998 11001 11003 11006 11008 11010 11012 11013 11014 11015 11017 11020 11022 11023 11025 11027 11029 11030 11032 11033 11035
10853 10851 10849 10846 10844 10841 10838 10834 10830 10824 10819 10813 10806 10798 10790 10782 10773 10765 10757 10751 10748 10745 10744 10744 10744 10745 10748 10752 10758 10765 10772 10779 10787 10795 10803 10813 10822 10829 10836 10845 10852 10857 10864 10871 10878 10884 10888 10893 10898 10904 10910 10916 10922 10928 10935 10942 10947 10951 10953 10959 10966 10971 10974 10979 10984 10989 10992 10994 10997 11000 11003 11005 11006 11008 11010 11011 11012 11015 11018 11019 11021 11023 11025 11027 11029 11030 11032 11034
10849 10847 10845 10843 10840 10837 10833 10830 10825 10819 10813 10806 10799 10791 10783 10774 10765 10757 10751 10746 10742 10740 10738 10738 10737 10738 10741 10745 10750 10757 10763 10772 10780 10787 10796 10807 10814 10821 10830 10838 10843 10850 10857 10863 10870 10876 10880 10885 10890 10896 10903 10909 10917 10924 10931 10937 10941 10944 10949 10956 10963 10966 10971 10976 10981 10985 10988 10990 10994 10997 11000 11002 11004 11006 11008 11009 11011 11013 11016 11018 11020 11021 11023 11025 11027 11029 11031 11032
10845 10844 10842 10839 10836 10833 10829 10825 10820 10814 10807 10800 10792 10784 10777 10768 10759 10751 10745 10741 10738 10735 10733 10732 10732 10733 10736 10739 10744 10749 10756 10765 10772 10779 10790 10799 10806 10814 10822 10828 10834 10842 10848 10855 10863 10870 10874 10878 10883 10891 10898 10905 10913 10920 10926 10932 10934 10937 10945 10953 10958 10961 10966 10972 10977 10981 10984 10987 10990 10993 10996 10999 11001 11004 11006 11008 11009 11011 11013 11016 11018 11019 11021 11024 11026 11028 11029 11031
10842 10840 10838 10835 10832 10829 10826 10821 10816 10810 10803 10795 10787 10779 10771 10763 10754 10746 10741 10737 10734 10731 10730 10729 10728 10729 10731 10734 10738 10743 10749 10756 10762 10772 10783 10791 10798 10804 10811 10817 10824 10833 10841 10850 10859 10865 10868 10870 10876 10884 10890 10898 10909 10915 10919 10924 10926 10932 10940 10947 10952 10956 10962 10969 10974 10978 10981 10984 10987 10989 10992 10995 10998 11001 11004 11006 11007 11008 11010 11013 11015 11017 11019 11022 11025 11027 11028 11030
10838 10837 10835 10832 10829 10826 10823 10818 10813 10807 10800 10792 10784 10775 10767 10758 10750 10743 10737 10734 10731 10729 10727 10726 10726 10726 10727 10730 10733 10738 10744 10750 10757 10766 10776 10783 10789 10797 10805 10812 10820 10829 10838 10846 10854 10856 10855 10859 10869 10877 10883 10893 10903 10906 10911 10916 10920 10927 10934 10941 10947 10952 10960 10967 10972 10975 10977 10980 10983 10985 10988 10992 10995 10998 11001 11003 11005 11006 11008 11011 11013 11015 11018 11020 11023 11026 11027 11029
10835 10833 10831 10829 10826 10823 10820 10815 10810 10804 10797 10789 10781 10772 10763 10755 10747 10740 10735 10732 10729 10727 10725 10724 10724 10724 10725 10727 10730 10734 10740 10745 10752 10760 10767 10774 10783 10793 10799 10806 10816 10824 10831 10840 10844 10844 10847 10858 10867 10873 10879 10891 10899 10902 10907 10910 10914 10923 10929 10936 10944 10950 10956 10962 10965 10968 10970 10974 10978 10981 10984 10988 10991 10994 10997 11001 11002 11003 11006 11008 11010 11013 11015 11018 11022 11024 11025 11027
10832 10830 10828 10825 10822 10820 10816 10812 10807 10801 10794 10787 10778 10769 10761 10752 10744 10738 10733 10730 10727 10725 10724 10722 10722 10722 10723 10725 10727 10731 10734 10740 10747 10755 10761 10768 10777 10786 10793 10801 10809 10815 10823 10831 10833 10837 10848 10858 10864 10868 10877 10889 10897 10901 10904 10905 10911 10921 10925 10932 10942 10947 10950 10954 10956 10960 10965 10969 10973 10977 10981 10984 10988 10991 10994 10997 10999 11001 11002 11005 11007 11010 11012 11016 11019 11022 11024 11026
10829 10827 10825 10822 10819 10817 10813 10809 10804 10798 10792 10784 10776 10767 10759 10750 10742 10736 10732 10729 10726 10724 10723 10721 10720 10720 10721 10723 10725 10727 10731 10736 10743 10749 10756 10764 10771 10778 10785 10793 10801 10809 10817 10820 10821 10832 10843 10848 10855 10863 10873 10883 10887 10889 10893 10897 10906 10915 10920 10929 10937 10940 10943 10947 10951 10956 10961 10965 10968 10973 10978 10981 10985 10988 10989 10992 10995 10998 11000 11002 11004 11007 11010 11014 11017 11019 11022 11024
10826 10824 10822 10819 10816 10813 10810 10806 10801 10796 10789 10782 10774 10766 10757 10749 10742 10735 10731 10728 10725 10723 10722 10721 10719 10719 10720 10721 10722 10724 10728 10733 10738 10743 10751 10759 10767 10773 10777 10785 10794 10802 10806 10807 10814 10826 10831 10836 10848 10857 10864 10871 10876 10881 10884 10887 10896 10905 10913 10921 10925 10929 10935 10939 10944 10951 10956 10959 10964 10969 10973 10977 10981 10983 10985 10988 10992 10995 10997 10999 11001 11004 11008 11011 11013 11016 11019 11022
10824 10822 10819 10816 10813 10810 10807 10803 10798 10793 10787 10780 10773 10766 10757 10749 10741 10735 10730 10727 10724 10723 10721 10720 10719 10718 10718 10719 10720 10723 10726 10729 10733 10738 10746 10754 10762 10768 10773 10781 10787 10790 10795 10802 10812 10820 10823 10833 10845 10850 10854 10860 10866 10872 10874 10878 10889 10900 10908 10913 10917 10923 10930 10933 10938 10945 10950 10955 10960 10964 10967 10971 10976 10978 10982 10986 10989 10993 10995 10996 10998 11001 11004 11008 11011 11014 11016 11019
10821 10819 10817 10814 10811 10808 10804 10800 10796 10791 10785 10779 10772 10765 10757 10749 10742 10735 10729 10726 10724 10722 10720 10719 10718 10717 10718 10718 10720 10722 10724 10726 10729 10734 10741 10749 10756 10761 10768 10774 10777 10781 10789 10796 10804 10811 10817 10829 10837 10840 10846 10854 10857 10860 10865 10875 10886 10896 10905 10911 10914 10921 10925 10927 10933 10939 10945 10950 10955 10959 10961 10967 10971 10974 10979 10984 10987 10991 10993 10994 10996 10997 11001 11005 11008 11011 11013 11016
10818 10817 10815 10812 10809 10805 10802 10798 10793 10788 10783 10778 10771 10764 10757 10750 10742 10736 10730 10725 10723 10721 10720 10719 10718 10717 10717 10717 10719 10720 10722 10724 10727 10731 10735 10742 10749 10755 10761 10766 10769 10774 10781 10788 10797 10806 10813 10823 10830 10833 10842 10848 10849 10853 10862 10871 10880 10889 10898 10902 10905 10912 10916 10919 10927 10933 10938 10944 10949 10952 10957 10963 10967 10970 10975 10980 10984 10988 10990 10991 10993 10995 10998 11002 11005 11007 11010 11013
10816 10814 10812 10810 10807 10804 10800 10796 10791 10787 10781 10776 10770 10764 10757 10750 10743 10736 10730 10726 10722 10720 10719 10718 10717 10717 10716 10716 10717 10718 10720 10722 10726 10730 10734 10739 10746 10750 10754 10760 10765 10772 10781 10789 10798 10805 10811 10818 10825 10832 10842 10845 10844 10851 10860 10866 10876 10884 10890 10894 10898 10903 10908 10915 10923 10928 10933 10939 10943 10947 10952 10957 10961 10965 10970 10975 10979 10984 10987 10989 10991 10994 10996 10999 11002 11004 11007 11011
10813 10812 10810 10807 10804 10802 10798 10794 10790 10785 10780 10775 10769 10763 10757 10751 10744 10737 10731 10726 10722 10720 10718 10717 10717 10717 10715 10716 10716 10717 10719 10721 10724 10729 10733 10737 10740 10744 10751 10759 10765 10775 10785 10792 10798 10805 10810 10814 10821 10831 10839 10841 10842 10848 10855 10863 10873 10879 10885 10893 10896 10898 10904 10911 10917 10922 10927 10932 10936 10940 10946 10950 10954 10959 10965 10971 10975 10979 10984 10987 10989 10992 10995 10997 10999 11002 11005 11009
10811 10809 10807 10805 10802 10799 10796 10793 10789 10784 10780 10775 10769 10763 10757 10750 10744 10737 10731 10726 10722 10719 10718 10716 10716 10716 10715 10715 10716 10716 10717 10719 10722 10725 10729 10733 10736 10741 10750 10758 10765 10774 10780 10785 10792 10801 10806 10811 10822 10830 10833 10835 10837 10842 10851 10860 10867 10872 10881 10888 10889 10892 10900 10906 10912 10917 10919 10924 10929 10933 10938 10942 10947 10953 10960 10966 10971 10976 10982 10985 10987 10989 10992 10996 10998 11000 11004 11007
10808 10806 10805 10803 10800 10797 10795 10791 10787 10783 10778 10773 10768 10763 10757 10751 10744 10738 10732 10727 10722 10719 10717 10716 10715 10715 10714 10714 10715 10715 10716 10718 10721 10724 10727 10731 10735 10740 10748 10754 10762 10770 10775 10780 10786 10791 10795 10803 10814 10821 10825 10831 10833 10835 10844 10854 10860 10867 10876 10882 10882 10886 10893 10899 10905 10909 10912 10918 10923 10926 10930 10934 10941 10949 10955 10962 10968 10973 10977 10980 10983 10987 10991 10995 10997 10999 11002 11005
10805 10804 10802 10800 10798 10795 10793 10790 10786 10782 10777 10772 10767 10763 10757 10751 10745 10739 10733 10728 10723 10719 10717 10715 10714 10714 10713 10713 10714 10715 10716 10716 10719 10721 10724 10728 10733 10740 10746 10751 10759 10767 10770 10773 10778 10783 10790 10797 10804 10810 10817 10824 10826 10830 10841 10851 10856 10862 10871 10876 10877 10880 10886 10892 10897 10900 10904 10909 10913 10917 10922 10928 10937 10945 10951 10957 10963 10967 10972 10976 10981 10986 10990 10994 10996 10998 11001 11004
10803 10801 10800 10798 10796 10793 10791 10788 10784 10780 10776 10772 10767 10762 10757 10751 10745 10739 10734 10729 10724 10720 10717 10715 10713 10713 10712 10712 10713 10714 10714 10715 10716 10718 10721 10726 10731 10737 10741 10746 10753 10758 10759 10763 10772 10781 10789 10796 10802 10809 10816 10823 10828 10832 10840 10847 10852 10856 10863 10869 10871 10875 10882 10887 10889 10891 10894 10897 10901 10907 10914 10923 10932 10939 10945 10952 10958 10962 10968 10973 10979 10984 10988 10992 10996 10998 11000 11003
10800 10799 10798 10796 10794 10791 10789 10787 10783 10778 10775 10771 10766 10761 10756 10751 10745 10740 10735 10730 10726 10721 10717 10714 10713 10712 10711 10711 10712 10712 10713 10714 10715 10716 10718 10723 10728 10732 10735 10740 10746 10751 10756 10764 10773 10782 10787 10792 10799 10808 10818 10825 10828 10828 10831 10838 10845 10850 10856 10863 10867 10870 10874 10875 10877 10883 10887 10889 10893 10899 10909 10920 10929 10934 10941 10948 10954 10959 10964 10971 10977 10981 10985 10990 10995 10998 11000 11001
10797 10796 10795 10793 10791 10789 10788 10785 10782 10778 10774 10769 10765 10760 10755 10750 10745 10740 10735 10731 10727 10722 10718 10715 10712 10711 10710 10710 10710 10710 10712 10713 10714 10715 10717 10720 10724 10726 10730 10736 10743 10751 10757 10762 10769 10775 10779 10786 10796 10805 10812 10815 10815 10817 10821 10829 10837 10842 10846 10852 10855 10857 10861 10867 10871 10876 10879 10881 10886 10897 10911 10921 10926 10930 10937 10944 10949 10955 10961 10968 10973 10977 10981 10986 10993 10996 10997 10999
10794 10793 10791 10790 10789 10787 10785 10783 10779 10776 10772 10768 10764 10760 10755 10750 10746 10741 10736 10731 10727 10723 10719 10715 10712 10710 10709 10708 10708 10708 10710 10711 10712 10714 10715 10717 10719 10721 10725 10732 10740 10746 10748 10751 10758 10764 10771 10782 10792 10799 10805 10809 10812 10815 10820 10828 10835 10838 10840 10843 10847 10852 10857 10859 10860 10864 10869 10873 10879 10893 10908 10917 10920 10924 10930 10937 10944 10950 10957 10963 10967 10971 10976 10982 10986 10988 10990 10995
10791 10790 10789 10787 10786 10784 10782 10780 10776 10773 10770 10767 10763 10759 10755 10750 10746 10741 10736 10732 10727 10723 10719 10715 10712 10710 10708 10707 10707 10707 10708 10709 10710 10711 10713 10715 10716 10718 10721 10725 10731 10735 10738 10743 10749 10754 10765 10776 10782 10789 10796 10802 10808 10812 10818 10825 10829 10830 10835 10840 10845 10848 10845 10842 10846 10852 10857 10862 10870 10884 10900 10909 10912 10915 10921 10931 10938 10944 10953 10959 10963 10967 10971 10976 10980 10983 10986 10990
10787 10787 10786 10785 10783 10781 10779 10777 10774 10771 10768 10764 10761 10758 10754 10750 10746 10741 10736 10732 10727 10724 10720 10716 10712 10709 10707 10706 10705 10705 10706 10706 10707 10709 10711 10713 10714 10714 10715 10719 10724 10728 10732 10739 10745 10751 10761 10769 10773 10779 10784 10788 10794 10798 10806 10815 10817 10821 10829 10831 10829 10826 10824 10829 10839 10845 10850 10856 10865 10879 10894 10903 10906 10910 10918 10928 10934 10940 10948 10955 10959 10962 10966 10971 10977 10980 10982 10984
10783 10783 10782 10781 10780 10778 10776 10774 10772 10769 10766 10763 10759 10756 10753 10749 10745 10741 10736 10732 10727 10723 10720 10716 10712 10709 10706 10705 10704 10704 10704 10703 10704 10706 10708 10710 10711 10711 10712 10716 10721 10724 10727 10733 10740 10747 10756 10762 10767 10773 10778 10783 10787 10790 10796 10802 10803 10808 10812 10810 10808 10813 10821 10832 10840 10843 10849 10857 10865 10879 10893 10903 10908 10912 10917 10924 10931 10938 10944 10949 10954 10958 10963 10968 10972 10975 10977 10978
10780 10779 10778 10778 10777 10775 10773 10771 10769 10767 10764 10761 10758 10755 10751 10748 10744 10740 10736 10731 10727 10723 10719 10716 10712 10709 10706 10703 10702 10702 10702 10702 10702 10704 10706 10708 10708 10708 10710 10713 10716 10718 10720 10726 10733 10739 10746 10753 10760 10766 10772 10778 10782 10786 10790 10791 10791 10794 10793 10793 10801 10812 10823 10832 10837 10840 10846 10854 10867 10884 10896 10904 10910 10912 10912 10919 10929 10936 10941 10945 10949 10953 10958 10962 10964 10967 10970 10971
10776 10776 10775 10774 10774 10772 10771 10769 10767 10765 10762 10760 10757 10753 10750 10746 10743 10739 10735 10731 10727 10723 10719 10716 10712 10708 10705 10702 10700 10700 10700 10700 10700 10701 10702 10704 10705 10706 10707 10709 10711 10712 10714 10720 10728 10732 10736 10745 10752 10759 10766 10770 10773 10776 10779 10782 10786 10786 10783 10788 10800 10810 10818 10825 10829 10833 10840 10850 10868 10884 10891 10898 10906 10907 10908 10916 10928 10933 10935 10938 10941 10944 10949 10953 10956 10960 10963 10965
10772 10772 10771 10771 10770 10769 10768 10766 10764 10762 10760 10757 10754 10751 10748 10745 10742 10738 10734 10730 10726 10723 10719 10715 10712 10708 10704 10701 10699 10698 10698 10697 10698 10698 10699 10700 10701 10703 10704 10705 10707 10708 10711 10718 10723 10724 10728 10738 10746 10752 10758 10760 10758 10761 10767 10775 10781 10780 10780 10791 10801 10807 10814 10819 10822 10826 10834 10847 10864 10876 10881 10888 10897 10899 10900 10909 10918 10921 10924 10930 10932 10934 10939 10945 10950 10953 10956 10961
10769 10768 10768 10767 10766 10765 10764 10763 10761 10759 10757 10755 10752 10749 10747 10743 10740 10737 10733 10729 10725 10722 10718 10715 10711 10708 10704 10701 10698 10696 10696 10695 10695 10695 10696 10697 10698 10699 10700 10701 10703 10705 10707 10712 10715 10717 10722 10731 10739 10743 10747 10746 10748 10757 10768 10774 10774 10774 10781 10792 10798 10804 10813 10817 10820 10824 10831 10843 10856 10865 10870 10877 10884 10888 10892 10901 10907 10909 10914 10922 10925 10926 10930 10937 10943 10946 10949 10956